Weather History for Elkins, WV

Change the Weather History Date:

Monday, October 31, 2011

  Actual Average Record
Temperature  
Mean Temperature 40 °F 47 °F  
Max Temperature 50 °F 60 °F 77 °F (1927)
Min Temperature 29 °F 34 °F 16 °F (1988)
Degree Days  
Heating Degree Days 25 18  
Month to date heating degree days 432 430  
Since 1 July heating degree days 531 591  
Cooling Degree Days 0 0  
Month to date cooling degree days 0 4  
Year to date cooling degree days 699 475  
Moisture  
Dew Point 32 °F    
Average Humidity 71    
Maximum Humidity 92    
Minimum Humidity 50    
Precipitation  
Precipitation T in 0.10 in 1.24 in (1921)
Month to date precipitation 4.27 2.85  
Year to date precipitation 44.36 39.29  
Snow  
Snow 0.00 in - - ()
Month to date snowfall 1.1  
Since 1 September snowfall 1.1  
Snow Depth 0.00 in    
Sea Level Pressure  
Sea Level Pressure 30.26 in    
Wind  
Wind Speed 2 mph (South)    
Max Wind Speed 12 mph    
Max Gust Speed 17 mph    
Visibility 10 miles    
Events      
T = Trace of Precipitation, MM = Missing Value Source: NWS Daily Summary

Daily Weather History Graph

Daily Weather History Graph

Search for Another Location

Airport:

Trip Planner

Search our weather history database for the weather conditions in past years. The results will help you decide how hot, cold, wet, or windy it might be!

Date:

Astronomy

Oct. 31, 2011 Rise Set
Actual Time 7:45 AM EDT 6:20 PM EDT
Civil Twilight 7:17 AM EDT 6:47 PM EDT
Nautical Twilight 6:46 AM EDT 7:19 PM EDT
Astronomical Twilight 6:15 AM EDT 7:50 PM EDT
Moon 12:49 PM EDT (10/31) 10:55 PM EDT (10/31)
Length of Visible Light 11h 30m
Length of Day
10h 35m
Waxing Crescent, 29% of the Moon is Illuminated
Oct 31
Waxing Crescent
Nov 2
First Quarter
Nov 10
Full
Nov 18
Last Quarter
Nov 25
New

Hourly Weather History & Observations

Time (EDT) Temp. Windchill Dew Point Humidity Pressure Visibility Wind Dir Wind Speed Gust Speed Precip Events Conditions
12:51 AM 30.0 °F - 28.9 °F 96% 30.31 in 4.0 mi Calm Calm - N/A   Clear
1:51 AM 30.9 °F - 28.0 °F 89% 30.30 in 8.0 mi Calm Calm - N/A   Clear
2:51 AM 30.9 °F - 28.9 °F 92% 30.30 in 10.0 mi Calm Calm - N/A   Clear
3:51 AM 30.0 °F - 28.0 °F 92% 30.29 in 8.0 mi Calm Calm - N/A   Clear
4:51 AM 30.9 °F - 28.9 °F 92% 30.28 in 10.0 mi Calm Calm - N/A   Clear
5:51 AM 32.0 °F 28.7 °F 28.4 °F 87% 30.23 in 10.0 mi SSE 3.5 mph - N/A   Clear
6:51 AM 33.1 °F - 28.9 °F 85% 30.29 in 10.0 mi Calm Calm - N/A   Clear
7:51 AM 30.9 °F - 28.9 °F 92% 30.30 in 9.0 mi Calm Calm - N/A   Clear
8:51 AM 34.0 °F - 30.9 °F 89% 30.30 in 10.0 mi Calm Calm - N/A   Clear
9:51 AM 43.0 °F 39.5 °F 32.0 °F 65% 30.29 in 10.0 mi South 5.8 mph - N/A   Clear
10:51 AM 45.0 °F 42.6 °F 32.0 °F 60% 30.27 in 10.0 mi South 4.6 mph - N/A   Clear
11:51 AM 46.0 °F 43.1 °F 33.1 °F 61% 30.27 in 10.0 mi South 5.8 mph - N/A   Partly Cloudy
12:51 PM 46.9 °F - 32.0 °F 56% 30.25 in 10.0 mi SSW 6.9 mph - N/A   Overcast
1:51 PM 48.9 °F - 33.1 °F 54% 30.21 in 10.0 mi SSW 3.5 mph - N/A   Clear
2:51 PM 50.0 °F - 33.1 °F 52% 30.20 in 10.0 mi Variable 4.6 mph - N/A   Partly Cloudy
3:51 PM 48.9 °F - 30.9 °F 50% 30.21 in 10.0 mi SSE 8.1 mph - N/A   Mostly Cloudy
4:51 PM 48.0 °F - 32.0 °F 54% 30.22 in 10.0 mi SSE 8.1 mph - 0.00 in   Overcast
5:51 PM 46.9 °F - 32.0 °F 56% 30.23 in 10.0 mi SSE 8.1 mph - N/A   Overcast
6:51 PM 44.1 °F - 32.0 °F 63% 30.24 in 10.0 mi Calm Calm - N/A   Overcast
7:51 PM 41.0 °F - 35.1 °F 79% 30.26 in 10.0 mi Calm Calm - N/A   Overcast
8:51 PM 43.0 °F - 35.1 °F 74% 30.27 in 10.0 mi Calm Calm - N/A   Overcast
9:51 PM 42.1 °F - 36.0 °F 79% 30.27 in 10.0 mi Calm Calm - N/A   Overcast
10:51 PM 42.1 °F - 37.0 °F 82% 30.27 in 10.0 mi Calm Calm - N/A   Overcast
11:51 PM 41.0 °F - 37.0 °F 86% 30.28 in 10.0 mi Calm Calm - N/A   Overcast